TimeCST,TemperatureF,Dew PointF,Humidity,Sea Level PressureIn,VisibilityMPH,Wind Direction,Wind SpeedMPH,Gust SpeedMPH,PrecipitationIn,Events,Conditions,WindDirDegrees,DateUTC
12:12 AM,28.4,7.0,40,30.00,10.0,SE,6.9,-,N/A,,Overcast,140,2013-03-04 06:12:00
12:32 AM,28.4,8.2,43,30.00,10.0,SE,3.5,-,N/A,,Overcast,130,2013-03-04 06:32:00
12:52 AM,28.2,9.0,44,30.01,10.0,SE,3.5,-,N/A,,Overcast,130,2013-03-04 06:52:00
1:12 AM,28.4,9.0,44,30.00,10.0,ESE,4.6,-,N/A,,Overcast,120,2013-03-04 07:12:00
1:52 AM,28.4,9.3,45,30.00,10.0,SE,4.6,-,N/A,,Overcast,140,2013-03-04 07:52:00
2:12 AM,28.4,10.4,47,29.99,10.0,ESE,4.6,-,N/A,,Overcast,120,2013-03-04 08:12:00
2:32 AM,28.4,10.4,47,29.98,10.0,SE,5.8,-,N/A,,Overcast,130,2013-03-04 08:32:00
2:52 AM,28.4,10.9,48,29.98,10.0,SE,4.6,-,N/A,,Overcast,130,2013-03-04 08:52:00
3:12 AM,28.4,11.1,48,29.97,10.0,SE,8.1,-,N/A,,Overcast,130,2013-03-04 09:12:00
3:32 AM,28.4,11.7,50,29.97,10.0,SE,5.8,-,N/A,,Overcast,130,2013-03-04 09:32:00
3:52 AM,28.4,11.3,49,29.96,10.0,SE,4.6,-,N/A,,Overcast,130,2013-03-04 09:52:00
4:12 AM,28.4,11.7,50,29.96,10.0,ESE,6.9,-,N/A,,Overcast,110,2013-03-04 10:12:00
4:32 AM,28.4,11.8,50,29.96,10.0,SE,6.9,-,N/A,,Overcast,130,2013-03-04 10:32:00
4:52 AM,28.4,11.7,50,29.96,10.0,ESE,8.1,-,N/A,,Overcast,120,2013-03-04 10:52:00
5:12 AM,28.2,11.8,50,29.96,10.0,ESE,10.4,-,N/A,,Overcast,110,2013-03-04 11:12:00
5:52 AM,27.9,11.8,51,29.97,10.0,ESE,9.2,-,N/A,,Overcast,120,2013-03-04 11:52:00
6:12 AM,27.5,12.2,53,29.97,10.0,SE,6.9,-,N/A,,Overcast,140,2013-03-04 12:12:00
6:32 AM,27.1,13.3,56,29.97,10.0,ESE,8.1,-,N/A,,Mostly Cloudy,120,2013-03-04 12:32:00
6:52 AM,26.4,16.2,65,29.97,5.0,SE,6.9,16.1,N/A,Snow,Light Snow,140,2013-03-04 12:52:00
7:12 AM,25.7,18.3,74,29.97,4.0,SSE,8.1,-,N/A,Snow,Light Snow,150,2013-03-04 13:12:00
7:32 AM,25.5,18.3,74,29.97,2.5,ESE,6.9,-,N/A,Snow,Light Snow,120,2013-03-04 13:32:00
7:52 AM,25.5,18.7,75,29.97,1.8,SE,8.1,-,N/A,Snow,Light Snow,140,2013-03-04 13:52:00
8:12 AM,25.5,18.9,76,29.97,2.5,ESE,6.9,-,N/A,Snow,Light Snow,120,2013-03-04 14:12:00
8:32 AM,25.5,19.4,78,29.98,3.0,SE,3.5,-,N/A,Snow,Light Snow,130,2013-03-04 14:32:00
8:52 AM,25.5,18.7,75,29.98,3.0,SE,8.1,-,N/A,Snow,Light Snow,130,2013-03-04 14:52:00
9:12 AM,25.5,18.1,74,29.98,2.5,SE,5.8,-,N/A,Snow,Light Snow,130,2013-03-04 15:12:00
9:32 AM,25.7,18.1,73,29.98,2.5,SE,9.2,-,N/A,,Haze,130,2013-03-04 15:32:00
9:52 AM,25.7,17.6,71,29.98,2.0,ESE,10.4,17.3,N/A,,Haze,120,2013-03-04 15:52:00
10:12 AM,25.7,18.0,73,29.97,2.0,ESE,10.4,-,N/A,,Haze,120,2013-03-04 16:12:00
10:32 AM,26.2,16.9,68,29.97,7.0,ESE,11.5,17.3,N/A,,Overcast,120,2013-03-04 16:32:00
10:52 AM,27.5,12.7,54,29.97,10.0,ESE,8.1,-,N/A,,Overcast,120,2013-03-04 16:52:00
11:12 AM,28.4,10.8,48,29.97,10.0,ESE,10.4,17.3,N/A,,Overcast,110,2013-03-04 17:12:00
11:32 AM,28.4,11.3,49,29.97,10.0,East,11.5,17.3,N/A,,Overcast,100,2013-03-04 17:32:00
11:52 AM,28.0,12.7,53,29.96,5.0,East,10.4,17.3,N/A,,Haze,100,2013-03-04 17:52:00
12:12 PM,28.4,14.2,55,29.96,5.0,ESE,5.8,17.3,N/A,Snow,Light Snow,110,2013-03-04 18:12:00
12:52 PM,27.5,14.7,59,29.95,10.0,East,9.2,-,N/A,,Overcast,100,2013-03-04 18:52:00
1:12 PM,27.7,13.1,54,29.95,10.0,ESE,13.8,19.6,N/A,,Overcast,110,2013-03-04 19:12:00
1:32 PM,27.5,13.5,56,29.96,10.0,East,9.2,-,N/A,,Overcast,100,2013-03-04 19:32:00
1:52 PM,27.1,14.2,58,29.95,10.0,East,11.5,17.3,N/A,,Overcast,90,2013-03-04 19:52:00
2:12 PM,27.0,14.0,58,29.95,10.0,East,9.2,17.3,N/A,,Overcast,90,2013-03-04 20:12:00
2:32 PM,26.6,15.6,63,29.95,10.0,East,10.4,17.3,N/A,,Overcast,100,2013-03-04 20:32:00
2:52 PM,26.2,17.4,69,29.97,10.0,East,9.2,-,N/A,,Overcast,100,2013-03-04 20:52:00
3:12 PM,26.2,18.3,72,29.96,10.0,East,9.2,16.1,N/A,,Overcast,100,2013-03-04 21:12:00
3:32 PM,26.1,18.7,74,29.97,10.0,East,12.7,16.1,N/A,,Overcast,100,2013-03-04 21:32:00
3:52 PM,26.1,18.9,74,29.98,10.0,East,9.2,16.1,N/A,,Overcast,90,2013-03-04 21:52:00
4:12 PM,26.1,19.0,75,29.98,10.0,East,6.9,-,N/A,,Overcast,100,2013-03-04 22:12:00
4:32 PM,26.1,19.2,75,29.99,10.0,East,6.9,-,N/A,,Mostly Cloudy,100,2013-03-04 22:32:00
4:52 PM,26.2,19.4,75,29.98,10.0,East,9.2,-,N/A,,Mostly Cloudy,100,2013-03-04 22:52:00
5:12 PM,26.4,19.4,75,29.98,10.0,East,9.2,-,N/A,,Mostly Cloudy,100,2013-03-04 23:12:00
5:32 PM,26.4,19.8,76,29.98,10.0,East,9.2,-,N/A,,Overcast,100,2013-03-04 23:32:00
5:52 PM,26.4,19.9,77,29.98,10.0,East,9.2,-,N/A,,Overcast,100,2013-03-04 23:52:00
6:12 PM,26.2,20.1,78,29.98,7.0,East,9.2,-,N/A,Snow,Light Snow,90,2013-03-05 00:12:00
6:32 PM,26.2,20.5,79,29.99,5.0,East,5.8,-,N/A,Snow,Light Snow,100,2013-03-05 00:32:00
6:52 PM,26.2,20.8,80,29.99,7.0,East,5.8,-,N/A,Snow,Light Snow,90,2013-03-05 00:52:00
7:12 PM,26.4,21.0,80,30.00,7.0,East,4.6,-,N/A,,Overcast,90,2013-03-05 01:12:00
7:32 PM,26.6,21.0,79,30.00,10.0,East,4.6,-,N/A,,Overcast,100,2013-03-05 01:32:00
7:52 PM,26.6,21.2,80,30.01,10.0,Calm,Calm,-,N/A,,Overcast,0,2013-03-05 01:52:00
8:12 PM,26.6,21.2,80,30.02,10.0,Calm,Calm,-,N/A,,Overcast,0,2013-03-05 02:12:00
8:32 PM,27.0,21.6,80,30.03,5.0,Calm,Calm,-,N/A,Snow,Light Snow,0,2013-03-05 02:32:00
8:52 PM,26.6,22.1,83,30.04,3.0,East,3.5,-,N/A,Snow,Light Snow,100,2013-03-05 02:52:00
9:12 PM,26.6,22.3,84,30.03,2.5,Calm,Calm,-,0.01,Snow,Light Snow,0,2013-03-05 03:12:00
9:32 PM,26.4,22.6,86,30.04,7.0,Calm,Calm,-,0.01,,Overcast,0,2013-03-05 03:32:00
9:52 PM,26.4,22.8,86,30.04,3.0,ESE,3.5,-,0.01,Snow,Light Snow,110,2013-03-05 03:52:00
10:12 PM,26.6,23.7,89,30.03,0.8,ESE,3.5,-,N/A,,Overcast,110,2013-03-05 04:12:00
10:32 PM,26.4,24.3,92,30.03,0.8,East,5.8,-,0.01,Snow,Snow,100,2013-03-05 04:32:00
10:52 PM,26.2,24.3,92,30.03,1.8,East,4.6,-,0.01,Snow,Light Snow,90,2013-03-05 04:52:00
11:12 PM,26.2,24.3,92,30.02,0.8,East,5.8,-,N/A,Snow,Snow,100,2013-03-05 05:12:00
11:32 PM,26.1,24.1,92,30.02,4.0,East,4.6,-,0.02,Snow,Light Snow,100,2013-03-05 05:32:00
11:52 PM,26.4,24.1,91,30.01,1.5,East,5.8,-,0.03,Snow,Light Snow,100,2013-03-05 05:52:00